Versión en castellano
places Weather data articles

Conditions at Mairena del Aljarafe, Sevilla, Spain
Year Month Day Show

  Date        time        Out Temp.    Out hum.   Wind Dir.    Wind speed   SL Pressure   In T. Today rain 

   17-05-2021    23:30      25.9º(+1.1)     35%      337(NW)      8.0 km/h    1017.6 hpa     28.4º    0.0 mm
   17-05-2021    23:25      26.1º(+1.1)     34%      337(NW)     11.3 km/h    1017.5 hpa     28.4º    0.0 mm
   17-05-2021    23:20      26.2º(+1.0)     34%      337(NW)     11.3 km/h    1017.4 hpa     28.4º    0.0 mm
   17-05-2021    23:15      26.3º(+1.0)     34%      337(NW)     11.3 km/h    1017.4 hpa     28.5º    0.0 mm
   17-05-2021    23:10      26.4º(+0.9)     34%      337(NW)     11.3 km/h    1017.5 hpa     28.5º    0.0 mm
   17-05-2021    23:05      26.4º(+0.8)     34%      000 (N)      8.0 km/h    1017.4 hpa     28.5º    0.0 mm
   17-05-2021    23:00      26.6º(+0.9)     33%      337(NW)      8.0 km/h    1017.3 hpa     28.5º    0.0 mm
   17-05-2021    22:55      26.9º(+1.1)     33%      337(NW)      8.0 km/h    1017.2 hpa     28.6º    0.0 mm
   17-05-2021    22:50      27.2º(+1.3)     32%      337(NW)      6.4 km/h    1017.1 hpa     28.6º    0.0 mm
   17-05-2021    22:45      27.4º(+1.4)     32%      337(NW)      4.8 km/h    1017.0 hpa     28.6º    0.0 mm
   17-05-2021    22:40      27.6º(+1.5)     31%      337(NW)      6.4 km/h    1016.8 hpa     28.6º    0.0 mm
   17-05-2021    22:35      27.7º(+1.5)     31%      000 (N)      8.0 km/h    1016.7 hpa     28.6º    0.0 mm
   17-05-2021    22:30      27.8º(+1.5)     30%      000 (N)      4.8 km/h    1016.6 hpa     28.6º    0.0 mm
   17-05-2021    22:25      27.9º(+1.6)     30%      000 (N)      4.8 km/h    1016.5 hpa     28.7º    0.0 mm
   17-05-2021    22:20      28.0º(+1.6)     30%      000 (N)      4.8 km/h    1016.4 hpa     28.7º    0.0 mm
   17-05-2021    22:15      28.1º(+1.5)     30%      000 (N)      4.8 km/h    1016.3 hpa     28.7º    0.0 mm
   17-05-2021    22:10      28.3º(+1.6)     30%      337(NW)      3.2 km/h    1016.2 hpa     28.7º    0.0 mm
   17-05-2021    22:05      28.4º(+1.6)     30%      337(NW)      3.2 km/h    1016.2 hpa     28.7º    0.0 mm
   17-05-2021    22:00      28.5º(+1.5)     30%      337(NW)      3.2 km/h    1016.2 hpa     28.7º    0.0 mm
   17-05-2021    21:55      28.6º(+1.5)     30%      337(NW)      1.6 km/h    1016.2 hpa     28.7º    0.0 mm
   17-05-2021    21:50      28.7º(+1.5)     29%      337(NW)      3.2 km/h    1016.2 hpa     28.7º    0.0 mm
   17-05-2021    21:45      28.8º(+1.5)     29%      337(NW)      3.2 km/h    1016.1 hpa     28.7º    0.0 mm
   17-05-2021    21:40      28.8º(+1.4)     29%      337(NW)      4.8 km/h    1016.1 hpa     28.7º    0.0 mm
   17-05-2021    21:35      28.9º(+1.2)     29%      337(NW)      3.2 km/h    1016.2 hpa     28.7º    0.0 mm
   17-05-2021    21:30      29.1º(+1.3)     28%      315(NW)      4.8 km/h    1016.1 hpa     28.7º    0.0 mm
   17-05-2021    21:25      29.2º(+1.2)     28%      315(NW)      4.8 km/h    1016.1 hpa     28.7º    0.0 mm
   17-05-2021    21:20      29.3º(+1.2)     28%      337(NW)      4.8 km/h    1016.1 hpa     28.7º    0.0 mm
   17-05-2021    21:15      29.4º(+1.0)     27%      315(NW)      4.8 km/h    1016.0 hpa     28.7º    0.0 mm
   17-05-2021    21:10      29.6º(+1.0)     27%      315(NW)      4.8 km/h    1016.0 hpa     28.6º    0.0 mm
   17-05-2021    21:05      29.7º(+0.8)     27%      000 (N)      3.2 km/h    1015.9 hpa     28.6º    0.0 mm
   17-05-2021    21:00      29.7º(+0.6)     27%      000 (N)      3.2 km/h    1016.0 hpa     28.6º    0.0 mm
   17-05-2021    20:55      29.9º(+0.6)     26%      000 (N)      6.4 km/h    1016.0 hpa     28.6º    0.0 mm
   17-05-2021    20:50      30.1º(+0.6)     26%      337(NW)      6.4 km/h    1016.0 hpa     28.6º    0.0 mm
   17-05-2021    20:45      30.1º(+0.4)     26%      337(NW)      6.4 km/h    1015.9 hpa     28.6º    0.0 mm
   17-05-2021    20:40      30.2º(+0.4)     26%      337(NW)      8.0 km/h    1015.9 hpa     28.6º    0.0 mm
   17-05-2021    20:35      30.2º(+0.3)     26%      000 (N)      6.4 km/h    1015.9 hpa     28.6º    0.0 mm
   17-05-2021    20:30      30.3º(+0.2)     26%      000 (N)      6.4 km/h    1015.8 hpa     28.7º    0.0 mm
   17-05-2021    20:25      30.4º(+0.3)     26%      000 (N)      4.8 km/h    1015.8 hpa     28.6º    0.0 mm
   17-05-2021    20:20      30.3º(+0.2)     26%      000 (N)      6.4 km/h    1015.8 hpa     28.6º    0.0 mm
   17-05-2021    20:15      30.4º(+0.2)     26%      000 (N)      6.4 km/h    1015.8 hpa     28.5º    0.0 mm
   17-05-2021    20:10      30.4º(+0.0)     26%      000 (N)      3.2 km/h    1015.8 hpa     28.5º    0.0 mm
   17-05-2021    20:05      30.3º(-0.3)     26%      000 (N)      6.4 km/h    1015.8 hpa     28.5º    0.0 mm
   17-05-2021    20:00      30.3º(-0.3)     26%      000 (N)      4.8 km/h    1015.8 hpa     28.5º    0.0 mm
   17-05-2021    19:55      30.2º(-0.3)     26%      000 (N)      8.0 km/h    1015.9 hpa     28.5º    0.0 mm
   17-05-2021    19:50      30.2º(-0.5)     26%      000 (N)      4.8 km/h    1015.8 hpa     28.5º    0.0 mm
   17-05-2021    19:45      30.2º(-0.7)     26%      000 (N)      8.0 km/h    1015.8 hpa     28.5º    0.0 mm
   17-05-2021    19:40      30.3º(-0.8)     26%      000 (N)      3.2 km/h    1015.8 hpa     28.5º    0.0 mm
   17-05-2021    19:35      30.3º(-0.8)     26%      000 (N)      6.4 km/h    1015.8 hpa     28.5º    0.0 mm
   17-05-2021    19:30      30.3º(-0.9)     26%      000 (N)      8.0 km/h    1015.8 hpa     28.5º    0.0 mm
   17-05-2021    19:25      30.4º(-0.8)     26%      000 (N)      9.7 km/h    1015.8 hpa     28.5º    0.0 mm
   17-05-2021    19:20      30.4º(-0.8)     26%      000 (N)      6.4 km/h    1015.8 hpa     28.5º    0.0 mm
   17-05-2021    19:15      30.2º(-0.9)     26%      022 (N)      4.8 km/h    1015.9 hpa     28.5º    0.0 mm
   17-05-2021    19:10      30.2º(-1.1)     26%      000 (N)      9.7 km/h    1015.9 hpa     28.5º    0.0 mm
   17-05-2021    19:05      30.2º(-1.1)     26%      000 (N)      8.0 km/h    1016.0 hpa     28.5º    0.0 mm
   17-05-2021    19:00      30.3º(-1.1)     26%      000 (N)      9.7 km/h    1016.0 hpa     28.5º    0.0 mm
   17-05-2021    18:55      30.4º(-1.0)     25%      000 (N)      6.4 km/h    1016.1 hpa     28.5º    0.0 mm
   17-05-2021    18:50      30.5º(-1.2)     25%      000 (N)      8.0 km/h    1016.1 hpa     28.5º    0.0 mm
   17-05-2021    18:45      30.7º(-1.1)     25%      000 (N)      9.7 km/h    1016.1 hpa     28.5º    0.0 mm
   17-05-2021    18:40      30.6º(-1.2)     25%      000 (N)      6.4 km/h    1016.2 hpa     28.5º    0.0 mm
   17-05-2021    18:35      30.6º(-1.1)     25%      000 (N)      8.0 km/h    1016.2 hpa     28.5º    0.0 mm
   17-05-2021    18:30      30.7º(-1.2)     24%      000 (N)      8.0 km/h    1016.0 hpa     28.5º    0.0 mm
   17-05-2021    18:25      30.5º(-1.9)     24%      000 (N)      8.0 km/h    1015.9 hpa     28.5º    0.0 mm
   17-05-2021    18:20      30.6º(-2.5)     24%      000 (N)      9.7 km/h    1015.9 hpa     28.6º    0.0 mm
   17-05-2021    18:15      30.7º(-2.5)     24%      045(NE)      6.4 km/h    1015.9 hpa     28.6º    0.0 mm
   17-05-2021    18:10      30.7º(-2.2)     24%      000 (N)      8.0 km/h    1015.9 hpa     28.6º    0.0 mm
   17-05-2021    18:05      30.6º(-2.1)     25%      000 (N)      8.0 km/h    1015.9 hpa     28.6º    0.0 mm
   17-05-2021    18:00      30.4º(-2.2)     25%      000 (N)     12.9 km/h    1015.9 hpa     28.6º    0.0 mm
   17-05-2021    17:55      30.5º(-1.9)     26%      000 (N)      8.0 km/h    1016.0 hpa     28.6º    0.0 mm
   17-05-2021    17:50      30.8º(-1.8)     26%      000 (N)      8.0 km/h    1015.9 hpa     28.6º    0.0 mm
   17-05-2021    17:45      30.8º(-1.9)     27%      022 (N)      6.4 km/h    1015.9 hpa     28.6º    0.0 mm
   17-05-2021    17:40      30.9º(-1.7)     26%      000 (N)      6.4 km/h    1015.9 hpa     28.6º    0.0 mm
   17-05-2021    17:35      30.7º(-1.8)     27%      337(NW)      4.8 km/h    1015.9 hpa     28.6º    0.0 mm
   17-05-2021    17:30      30.8º(-1.6)     26%      000 (N)      6.4 km/h    1015.9 hpa     28.6º    0.0 mm
   17-05-2021    17:25      30.8º(-1.6)     26%      000 (N)      6.4 km/h    1015.9 hpa     28.5º    0.0 mm
   17-05-2021    17:20      30.7º(-1.6)     26%      000 (N)      6.4 km/h    1016.0 hpa     28.5º    0.0 mm
   17-05-2021    17:15      30.6º(-1.8)     26%      000 (N)      8.0 km/h    1016.1 hpa     28.5º    0.0 mm
   17-05-2021    17:10      30.6º(-2.0)     27%      000 (N)      8.0 km/h    1016.1 hpa     28.5º    0.0 mm
   17-05-2021    17:05      30.7º(-1.4)     27%      000 (N)      6.4 km/h    1016.1 hpa     28.5º    0.0 mm
   17-05-2021    17:00      30.4º(-1.7)     27%      000 (N)      8.0 km/h    1016.1 hpa     28.5º    0.0 mm
   17-05-2021    16:55      30.3º(-2.0)     28%      000 (N)      8.0 km/h    1016.2 hpa     28.5º    0.0 mm
   17-05-2021    16:50      30.4º(-1.8)     27%      000 (N)     11.3 km/h    1016.2 hpa     28.5º    0.0 mm
   17-05-2021    16:45      30.4º(-1.7)     28%      337(NW)      9.7 km/h    1016.2 hpa     28.4º    0.0 mm
   17-05-2021    16:40      30.4º(-1.7)     28%      000 (N)      9.7 km/h    1016.3 hpa     28.4º    0.0 mm
   17-05-2021    16:35      30.6º(-1.6)     28%      000 (N)      6.4 km/h    1016.3 hpa     28.4º    0.0 mm
   17-05-2021    16:30      30.6º(-1.3)     28%      000 (N)      6.4 km/h    1016.2 hpa     28.4º    0.0 mm
   17-05-2021    16:25      30.4º(-1.5)     29%      045(NE)      3.2 km/h    1016.3 hpa     28.4º    0.0 mm
   17-05-2021    16:20      30.4º(-1.4)     29%      022 (N)      4.8 km/h    1016.2 hpa     28.4º    0.0 mm
   17-05-2021    16:15      30.4º(-1.3)     29%      022 (N)      8.0 km/h    1016.4 hpa     28.4º    0.0 mm
   17-05-2021    16:10      30.6º(-1.1)     29%      000 (N)      1.6 km/h    1016.3 hpa     28.4º    0.0 mm
   17-05-2021    16:05      30.4º(-1.2)     29%      000 (N)      4.8 km/h    1016.3 hpa     28.4º    0.0 mm
   17-05-2021    16:00      30.5º(-1.2)     29%      022 (N)      4.8 km/h    1016.4 hpa     28.4º    0.0 mm
   17-05-2021    15:55      30.6º(-1.0)     29%      000 (N)      6.4 km/h    1016.4 hpa     28.4º    0.0 mm
   17-05-2021    15:50      30.2º(-1.2)     30%      090 (E)      3.2 km/h    1016.4 hpa     28.4º    0.0 mm
   17-05-2021    15:45      30.3º(-0.9)     30%      000 (N)      4.8 km/h    1016.4 hpa     28.3º    0.0 mm
   17-05-2021    15:40      30.4º(-0.8)     29%      000 (N)      4.8 km/h    1016.4 hpa     28.3º    0.0 mm
   17-05-2021    15:35      30.3º(-1.1)     30%      022 (N)      4.8 km/h    1016.4 hpa     28.3º    0.0 mm
   17-05-2021    15:30      30.6º(-0.8)     30%      045(NE)      4.8 km/h    1016.4 hpa     28.3º    0.0 mm
   17-05-2021    15:25      30.4º(-0.9)     30%      022 (N)      3.2 km/h    1016.5 hpa     28.3º    0.0 mm
   17-05-2021    15:20      30.1º(-0.9)     29%      000 (N)      1.6 km/h    1016.5 hpa     28.2º    0.0 mm
   17-05-2021    15:15      29.7º(-1.1)     30%      000 (N)      6.4 km/h    1016.6 hpa     28.2º    0.0 mm
   17-05-2021    15:10      29.9º(-0.9)     29%      022 (N)      6.4 km/h    1016.8 hpa     28.2º    0.0 mm
   17-05-2021    15:05      29.9º(-0.9)     28%      112 (E)      3.2 km/h    1016.8 hpa     28.2º    0.0 mm
   17-05-2021    15:00      29.8º(-1.0)     28%      000 (N)      4.8 km/h    1016.8 hpa     28.2º    0.0 mm
   17-05-2021    14:55      30.1º(-0.6)     25%      000 (N)      3.2 km/h    1016.8 hpa     28.2º    0.0 mm
   17-05-2021    14:50      30.0º(-0.6)     25%      067(NE)      3.2 km/h    1016.8 hpa     28.2º    0.0 mm
   17-05-2021    14:45      29.8º(-0.8)     25%      022 (N)      3.2 km/h    1016.9 hpa     28.2º    0.0 mm
   17-05-2021    14:40      29.6º(-0.8)     25%      045(NE)      3.2 km/h    1016.8 hpa     28.2º    0.0 mm
   17-05-2021    14:35      29.6º(-1.0)     26%      000 (N)      6.4 km/h    1016.8 hpa     28.2º    0.0 mm
   17-05-2021    14:30      29.3º(-1.1)     27%      022 (N)      4.8 km/h    1016.8 hpa     28.2º    0.0 mm
   17-05-2021    14:25      29.1º(-1.0)     28%      000 (N)      6.4 km/h    1017.0 hpa     28.2º    0.0 mm
   17-05-2021    14:20      29.0º(-0.8)     28%      022 (N)      6.4 km/h    1016.9 hpa     28.2º    0.0 mm
   17-05-2021    14:15      28.8º(-0.9)     28%      000 (N)     11.3 km/h    1017.0 hpa     28.2º    0.0 mm
   17-05-2021    14:10      28.8º(-0.9)     26%      000 (N)     11.3 km/h    1017.0 hpa     28.2º    0.0 mm
   17-05-2021    14:05      28.8º(-0.8)     28%      000 (N)      9.7 km/h    1016.9 hpa     28.2º    0.0 mm
   17-05-2021    14:00      28.8º(-0.5)     28%      000 (N)      6.4 km/h    1017.0 hpa     28.2º    0.0 mm
   17-05-2021    13:55      28.8º(-0.2)     29%      022 (N)      4.8 km/h    1017.2 hpa     28.2º    0.0 mm
   17-05-2021    13:50      28.8º(+0.0)     29%      000 (N)      6.4 km/h    1017.3 hpa     28.2º    0.0 mm
   17-05-2021    13:45      28.8º(+0.3)     30%      000 (N)      3.2 km/h    1017.3 hpa     28.2º    0.0 mm
   17-05-2021    13:40      28.6º(+0.2)     32%      000 (N)      3.2 km/h    1017.4 hpa     28.2º    0.0 mm
   17-05-2021    13:35      28.4º(+0.1)     33%      000 (N)      3.2 km/h    1017.3 hpa     28.2º    0.0 mm
   17-05-2021    13:30      28.1º(-0.1)     36%      022 (N)      3.2 km/h    1017.3 hpa     28.2º    0.0 mm
   17-05-2021    13:25      27.8º(-0.3)     36%      000 (N)      4.8 km/h    1017.3 hpa     28.2º    0.0 mm
   17-05-2021    13:20      27.6º(-0.3)     38%      000 (N)      3.2 km/h    1017.3 hpa     28.2º    0.0 mm
   17-05-2021    13:15      27.4º(-0.5)     37%      000 (N)      4.8 km/h    1017.4 hpa     28.2º    0.0 mm
   17-05-2021    13:10      27.1º(-0.3)     38%      337(NW)      6.4 km/h    1017.4 hpa     28.2º    0.0 mm
   17-05-2021    13:05      26.9º(-0.0)     38%      000 (N)      8.0 km/h    1017.4 hpa     28.2º    0.0 mm
   17-05-2021    13:00      26.8º(-0.0)     39%      000 (N)      6.4 km/h    1017.4 hpa     28.2º    0.0 mm
   17-05-2021    12:55      26.5º(-0.3)     40%      315(NW)      6.4 km/h    1017.3 hpa     28.2º    0.0 mm
   17-05-2021    12:50      26.3º(-0.7)     40%      000 (N)      6.4 km/h    1017.4 hpa     28.1º    0.0 mm
   17-05-2021    12:45      26.2º(-0.6)     41%      000 (N)      8.0 km/h    1017.4 hpa     28.1º    0.0 mm
   17-05-2021    12:40      26.1º(-0.5)     42%      000 (N)      6.4 km/h    1017.4 hpa     28.1º    0.0 mm
   17-05-2021    12:35      26.1º(-0.3)     43%      000 (N)      6.4 km/h    1017.4 hpa     28.1º    0.0 mm
   17-05-2021    12:30      26.0º(-0.2)     43%      000 (N)      4.8 km/h    1017.4 hpa     28.1º    0.0 mm
   17-05-2021    12:25      25.8º(-0.2)     44%      000 (N)      3.2 km/h    1017.4 hpa     27.9º    0.0 mm
   17-05-2021    12:20      25.8º(-0.3)     43%      000 (N)      4.8 km/h    1017.5 hpa     27.9º    0.0 mm
   17-05-2021    12:15      25.7º(-0.5)     44%      000 (N)      1.6 km/h    1017.5 hpa     27.9º    0.0 mm
   17-05-2021    12:10      25.5º(-0.5)     44%      022 (N)      6.4 km/h    1017.5 hpa     27.9º    0.0 mm
   17-05-2021    12:05      25.4º(-0.7)     45%      000 (N)      1.6 km/h    1017.6 hpa     27.9º    0.0 mm
   17-05-2021    12:00      25.1º(-0.9)     45%      000 (N)      4.8 km/h    1017.5 hpa     27.9º    0.0 mm
   17-05-2021    11:55      25.2º(-0.4)     45%      000 (N)      8.0 km/h    1017.5 hpa     28.1º    0.0 mm
   17-05-2021    11:50      25.2º(-0.1)     45%      000 (N)      4.8 km/h    1017.4 hpa     28.1º    0.0 mm
   17-05-2021    11:45      25.1º(-0.1)     45%      022 (N)      1.6 km/h    1017.3 hpa     28.1º    0.0 mm
   17-05-2021    11:40      24.9º(-0.3)     46%      090 (E)      3.2 km/h    1017.3 hpa     28.1º    0.0 mm
   17-05-2021    11:35      24.6º(-0.4)     46%      045(NE)      1.6 km/h    1017.4 hpa     28.1º    0.0 mm
   17-05-2021    11:30      24.3º(-0.4)     46%      000 (N)      4.8 km/h    1017.3 hpa     28.1º    0.0 mm
   17-05-2021    11:25      24.2º(-0.4)     48%      022 (N)      3.2 km/h    1017.4 hpa     28.1º    0.0 mm
   17-05-2021    11:20      23.8º(-0.8)     49%      022 (N)      4.8 km/h    1017.4 hpa     28.1º    0.0 mm
   17-05-2021    11:15      23.6º(-0.7)     50%      000 (N)      4.8 km/h    1017.4 hpa     28.1º    0.0 mm
   17-05-2021    11:10      23.6º(-0.5)     50%      000 (N)      6.4 km/h    1017.4 hpa     28.1º    0.0 mm
   17-05-2021    11:05      23.4º(-0.7)     50%      022 (N)      4.8 km/h    1017.4 hpa     28.2º    0.0 mm
   17-05-2021    11:00      23.1º(-1.0)     51%      000 (N)      4.8 km/h    1017.4 hpa     28.2º    0.0 mm
   17-05-2021    10:55      23.0º(-1.2)     51%      022 (N)      6.4 km/h    1017.2 hpa     28.2º    0.0 mm
   17-05-2021    10:50      23.1º(-1.1)     51%      000 (N)      9.7 km/h    1017.3 hpa     28.3º    0.0 mm
   17-05-2021    10:45      22.9º(-1.1)     52%      000 (N)      4.8 km/h    1017.3 hpa     28.3º    0.0 mm
   17-05-2021    10:40      22.8º(-0.8)     52%      000 (N)      4.8 km/h    1017.3 hpa     28.4º    0.0 mm
   17-05-2021    10:35      22.7º(-0.7)     52%      000 (N)      4.8 km/h    1017.4 hpa     28.4º    0.0 mm
   17-05-2021    10:30      22.2º(-1.0)     54%      000 (N)      6.4 km/h    1017.3 hpa     28.5º    0.0 mm
   17-05-2021    10:25      22.0º(-0.9)     53%      000 (N)      9.7 km/h    1017.2 hpa     28.6º    0.0 mm
   17-05-2021    10:20      22.0º(-0.8)     53%      000 (N)      9.7 km/h    1017.1 hpa     28.7º    0.0 mm
   17-05-2021    10:15      22.1º(-0.7)     53%      022 (N)      6.4 km/h    1017.2 hpa     28.8º    0.0 mm
   17-05-2021    10:10      22.1º(-0.7)     54%      022 (N)      6.4 km/h    1017.2 hpa     28.9º    0.0 mm
   17-05-2021    10:05      22.0º(-0.6)     55%      022 (N)      4.8 km/h    1017.0 hpa     29.1º    0.0 mm
   17-05-2021    10:00      21.8º(-0.4)     56%      000 (N)      4.8 km/h    1017.0 hpa     29.1º    0.0 mm
   17-05-2021    09:55      21.6º(-0.6)     58%      022 (N)      4.8 km/h    1016.9 hpa     29.1º    0.0 mm
   17-05-2021    09:50      21.4º(-0.9)     58%      000 (N)      4.8 km/h    1016.8 hpa     29.1º    0.0 mm
   17-05-2021    09:45      21.3º(-0.9)     59%      022 (N)      4.8 km/h    1016.8 hpa     28.9º    0.0 mm
   17-05-2021    09:40      21.3º(-0.9)     60%      022 (N)      6.4 km/h    1016.9 hpa     28.9º    0.0 mm
   17-05-2021    09:35      21.3º(-1.0)     61%      000 (N)      4.8 km/h    1016.8 hpa     28.8º    0.0 mm
   17-05-2021    09:30      21.2º(-1.0)     62%      000 (N)      6.4 km/h    1016.7 hpa     28.8º    0.0 mm
   17-05-2021    09:25      21.2º(-1.0)     62%      000 (N)      6.4 km/h    1016.7 hpa     28.8º    0.0 mm
   17-05-2021    09:20      21.0º(-1.3)     64%      022 (N)      3.2 km/h    1016.9 hpa     28.8º    0.0 mm
   17-05-2021    09:15      20.8º(-1.4)     64%      000 (N)      6.4 km/h    1016.7 hpa     28.7º    0.0 mm
   17-05-2021    09:10      20.9º(-1.4)     64%      000 (N)      6.4 km/h    1016.7 hpa     28.7º    0.0 mm
   17-05-2021    09:05      21.0º(-1.2)     65%      022 (N)      3.2 km/h    1016.7 hpa     28.7º    0.0 mm
   17-05-2021    09:00      20.9º(-1.3)     65%      000 (N)      4.8 km/h    1016.6 hpa     28.6º    0.0 mm
   17-05-2021    08:55      20.9º(-1.4)     66%      022 (N)      3.2 km/h    1016.6 hpa     28.6º    0.0 mm
   17-05-2021    08:50      20.8º(-1.3)     66%      000 (N)      1.6 km/h    1016.5 hpa     28.5º    0.0 mm
   17-05-2021    08:45      20.6º(-1.5)     68%      000 (N)      3.2 km/h    1016.4 hpa     28.5º    0.0 mm
   17-05-2021    08:40      20.4º(-1.5)     69%      022 (N)      3.2 km/h    1016.5 hpa     28.4º    0.0 mm
   17-05-2021    08:35      20.2º(-1.5)     69%      045(NE)      3.2 km/h    1016.4 hpa     28.3º    0.0 mm
   17-05-2021    08:30      20.0º(-1.5)     69%      000 (N)      4.8 km/h    1016.3 hpa     28.3º    0.0 mm
   17-05-2021    08:25      19.9º(-1.4)     70%      000 (N)      6.4 km/h    1016.3 hpa     28.2º    0.0 mm
   17-05-2021    08:20      19.8º(-1.2)     70%      000 (N)      6.4 km/h    1016.4 hpa     28.2º    0.0 mm
   17-05-2021    08:15      19.7º(-1.1)     71%      000 (N)      6.4 km/h    1016.3 hpa     28.2º    0.0 mm
   17-05-2021    08:10      19.6º(-1.0)     71%      000 (N)      9.7 km/h    1016.3 hpa     28.2º    0.0 mm
   17-05-2021    08:05      19.5º(-0.9)     71%      000 (N)      9.7 km/h    1016.2 hpa     28.1º    0.0 mm
   17-05-2021    08:00      19.4º(-0.7)     72%      000 (N)     11.3 km/h    1016.2 hpa     27.9º    0.0 mm
   17-05-2021    07:55      19.4º(-0.5)     72%      000 (N)      9.7 km/h    1016.3 hpa     27.8º    0.0 mm
   17-05-2021    07:50      19.3º(-0.4)     73%      000 (N)      9.7 km/h    1016.2 hpa     27.8º    0.0 mm
   17-05-2021    07:45      19.3º(-0.4)     73%      000 (N)      9.7 km/h    1016.1 hpa     27.8º    0.0 mm
   17-05-2021    07:40      19.2º(-0.4)     74%      000 (N)      6.4 km/h    1016.1 hpa     27.7º    0.0 mm
   17-05-2021    07:35      19.2º(-0.4)     74%      000 (N)      6.4 km/h    1016.0 hpa     27.7º    0.0 mm
   17-05-2021    07:30      19.2º(-0.3)     74%      000 (N)      4.8 km/h    1016.0 hpa     27.7º    0.0 mm
   17-05-2021    07:25      19.2º(-0.2)     74%      000 (N)      6.4 km/h    1016.0 hpa     27.6º    0.0 mm
   17-05-2021    07:20      19.2º(-0.2)     74%      000 (N)      6.4 km/h    1015.9 hpa     27.6º    0.0 mm
   17-05-2021    07:15      19.2º(-0.2)     74%      000 (N)      6.4 km/h    1016.0 hpa     27.6º    0.0 mm
   17-05-2021    07:10      19.3º(-0.2)     74%      000 (N)      6.4 km/h    1015.9 hpa     27.6º    0.0 mm
   17-05-2021    07:05      19.3º(-0.3)     74%      000 (N)      6.4 km/h    1015.9 hpa     27.6º    0.0 mm
   17-05-2021    07:00      19.3º(-0.3)     74%      000 (N)      6.4 km/h    1015.8 hpa     27.6º    0.0 mm
   17-05-2021    06:55      19.3º(-0.4)     74%      000 (N)      8.0 km/h    1015.8 hpa     27.6º    0.0 mm
   17-05-2021    06:50      19.4º(-0.3)     74%      000 (N)      8.0 km/h    1015.8 hpa     27.6º    0.0 mm
   17-05-2021    06:45      19.4º(-0.4)     74%      000 (N)      4.8 km/h    1015.7 hpa     27.6º    0.0 mm
   17-05-2021    06:40      19.4º(-0.4)     74%      000 (N)      4.8 km/h    1015.8 hpa     27.6º    0.0 mm
   17-05-2021    06:35      19.4º(-0.5)     74%      000 (N)      4.8 km/h    1015.7 hpa     27.6º    0.0 mm
   17-05-2021    06:30      19.4º(-0.5)     74%      000 (N)      3.2 km/h    1015.7 hpa     27.6º    0.0 mm
   17-05-2021    06:25      19.4º(-0.6)     74%      000 (N)      4.8 km/h    1015.7 hpa     27.6º    0.0 mm
   17-05-2021    06:20      19.4º(-0.6)     74%      000 (N)      4.8 km/h    1015.8 hpa     27.7º    0.0 mm
   17-05-2021    06:15      19.4º(-0.5)     74%      000 (N)      4.8 km/h    1015.7 hpa     27.7º    0.0 mm
   17-05-2021    06:10      19.4º(-0.5)     74%      000 (N)      6.4 km/h    1015.7 hpa     27.7º    0.0 mm
   17-05-2021    06:05      19.4º(-0.6)     74%      000 (N)      4.8 km/h    1015.7 hpa     27.7º    0.0 mm
   17-05-2021    06:00      19.5º(-0.6)     74%      000 (N)      4.8 km/h    1015.6 hpa     27.7º    0.0 mm
   17-05-2021    05:55      19.6º(-0.6)     74%      000 (N)      4.8 km/h    1015.4 hpa     27.7º    0.0 mm
   17-05-2021    05:50      19.6º(-0.6)     74%      000 (N)      4.8 km/h    1015.5 hpa     27.7º    0.0 mm
   17-05-2021    05:45      19.6º(-0.6)     74%      000 (N)      3.2 km/h    1015.7 hpa     27.7º    0.0 mm
   17-05-2021    05:40      19.7º(-0.5)     74%      000 (N)      4.8 km/h    1015.6 hpa     27.7º    0.0 mm
   17-05-2021    05:35      19.7º(-0.6)     74%      000 (N)      4.8 km/h    1015.6 hpa     27.7º    0.0 mm
   17-05-2021    05:30      19.7º(-0.6)     74%      000 (N)      4.8 km/h    1015.6 hpa     27.7º    0.0 mm
   17-05-2021    05:25      19.7º(-0.7)     74%      000 (N)      3.2 km/h    1015.5 hpa     27.7º    0.0 mm
   17-05-2021    05:20      19.8º(-0.6)     74%      000 (N)      3.2 km/h    1015.5 hpa     27.7º    0.0 mm
   17-05-2021    05:15      19.8º(-0.6)     74%      000 (N)      3.2 km/h    1015.4 hpa     27.7º    0.0 mm
   17-05-2021    05:10      19.8º(-0.8)     74%      000 (N)      3.2 km/h    1015.3 hpa     27.7º    0.0 mm
   17-05-2021    05:05      19.9º(-0.8)     74%      000 (N)      3.2 km/h    1015.3 hpa     27.8º    0.0 mm
   17-05-2021    05:00      19.9º(-0.9)     73%      000 (N)      4.8 km/h    1015.3 hpa     27.8º    0.0 mm
   17-05-2021    04:55      20.0º(-1.1)     73%      000 (N)      4.8 km/h    1015.4 hpa     27.8º    0.0 mm
   17-05-2021    04:50      20.1º(-1.2)     73%      000 (N)      4.8 km/h    1015.4 hpa     27.8º    0.0 mm
   17-05-2021    04:45      20.1º(-1.2)     73%      000 (N)      6.4 km/h    1015.2 hpa     27.8º    0.0 mm
   17-05-2021    04:40      20.1º(-1.2)     73%      000 (N)      4.8 km/h    1015.2 hpa     27.8º    0.0 mm
   17-05-2021    04:35      20.2º(-1.2)     73%      000 (N)      6.4 km/h    1015.3 hpa     27.8º    0.0 mm
   17-05-2021    04:30      20.2º(-1.2)     72%      000 (N)      6.4 km/h    1015.2 hpa     27.8º    0.0 mm
   17-05-2021    04:25      20.3º(-1.1)     72%      000 (N)      8.0 km/h    1015.3 hpa     27.8º    0.0 mm
   17-05-2021    04:20      20.3º(-1.2)     72%      000 (N)      4.8 km/h    1015.3 hpa     27.8º    0.0 mm
   17-05-2021    04:15      20.4º(-1.1)     72%      000 (N)      6.4 km/h    1015.3 hpa     27.8º    0.0 mm
   17-05-2021    04:10      20.4º(-1.2)     72%      000 (N)      4.8 km/h    1015.2 hpa     27.8º    0.0 mm
   17-05-2021    04:05      20.4º(-1.2)     72%      000 (N)      8.0 km/h    1015.2 hpa     27.8º    0.0 mm
   17-05-2021    04:00      20.5º(-1.2)     72%      000 (N)      8.0 km/h    1015.1 hpa     27.8º    0.0 mm
   17-05-2021    03:55      20.6º(-1.1)     71%      000 (N)      8.0 km/h    1015.1 hpa     27.8º    0.0 mm
   17-05-2021    03:50      20.6º(-1.1)     71%      000 (N)      8.0 km/h    1015.1 hpa     27.8º    0.0 mm
   17-05-2021    03:45      20.7º(-1.1)     71%      000 (N)      9.7 km/h    1015.1 hpa     27.8º    0.0 mm
   17-05-2021    03:40      20.7º(-1.1)     71%      000 (N)      9.7 km/h    1015.0 hpa     27.8º    0.0 mm
   17-05-2021    03:35      20.8º(-1.1)     71%      000 (N)      9.7 km/h    1015.0 hpa     27.8º    0.0 mm
   17-05-2021    03:30      20.8º(-1.2)     71%      000 (N)      9.7 km/h    1014.9 hpa     27.8º    0.0 mm
   17-05-2021    03:25      20.9º(-1.2)     70%      000 (N)      8.0 km/h    1014.9 hpa     27.8º    0.0 mm
   17-05-2021    03:20      20.9º(-1.2)     70%      000 (N)     11.3 km/h    1014.8 hpa     27.8º    0.0 mm
   17-05-2021    03:15      21.1º(-1.1)     69%      000 (N)      9.7 km/h    1014.8 hpa     27.8º    0.0 mm
   17-05-2021    03:10      21.1º(-1.1)     69%      000 (N)     11.3 km/h    1014.9 hpa     27.8º    0.0 mm
   17-05-2021    03:05      21.2º(-0.9)     69%      000 (N)     11.3 km/h    1014.8 hpa     27.8º    0.0 mm
   17-05-2021    03:00      21.3º(-0.8)     69%      000 (N)     11.3 km/h    1014.8 hpa     27.8º    0.0 mm
   17-05-2021    02:55      21.3º(-0.7)     68%      000 (N)     12.9 km/h    1014.8 hpa     27.8º    0.0 mm
   17-05-2021    02:50      21.4º(-0.7)     68%      000 (N)     11.3 km/h    1014.8 hpa     27.8º    0.0 mm
   17-05-2021    02:45      21.4º(-0.7)     68%      000 (N)     11.3 km/h    1014.8 hpa     27.8º    0.0 mm
   17-05-2021    02:40      21.6º(-0.6)     68%      000 (N)      9.7 km/h    1014.8 hpa     27.8º    0.0 mm
   17-05-2021    02:35      21.6º(-0.6)     68%      000 (N)     11.3 km/h    1015.0 hpa     27.8º    0.0 mm
   17-05-2021    02:30      21.7º(-0.6)     67%      000 (N)     11.3 km/h    1015.0 hpa     27.8º    0.0 mm
   17-05-2021    02:25      21.8º(-0.6)     67%      000 (N)     12.9 km/h    1015.0 hpa     27.8º    0.0 mm
   17-05-2021    02:20      21.8º(-0.7)     67%      000 (N)     12.9 km/h    1015.0 hpa     27.8º    0.0 mm
   17-05-2021    02:15      21.9º(-0.7)     66%      000 (N)     12.9 km/h    1014.9 hpa     27.8º    0.0 mm
   17-05-2021    02:10      21.9º(-0.8)     66%      000 (N)     12.9 km/h    1015.1 hpa     27.8º    0.0 mm
   17-05-2021    02:05      21.9º(-0.9)     66%      000 (N)     12.9 km/h    1015.0 hpa     27.8º    0.0 mm
   17-05-2021    02:00      22.0º(-0.9)     66%      000 (N)     11.3 km/h    1015.1 hpa     27.8º    0.0 mm
   17-05-2021    01:55      22.1º(----)     66%      000 (N)     12.9 km/h    1015.1 hpa     27.9º    0.0 mm
   17-05-2021    01:50      22.2º(----)     65%      000 (N)     11.3 km/h    1015.0 hpa     27.9º    0.0 mm
   17-05-2021    01:45      22.2º(----)     65%      000 (N)     11.3 km/h    1015.1 hpa     27.9º    0.0 mm
   17-05-2021    01:40      22.3º(----)     65%      000 (N)     11.3 km/h    1015.0 hpa     27.9º    0.0 mm
   17-05-2021    01:35      22.4º(----)     64%      000 (N)      9.7 km/h    1015.0 hpa     27.9º    0.0 mm
   17-05-2021    01:30      22.4º(----)     64%      000 (N)     11.3 km/h    1015.0 hpa     27.9º    0.0 mm
   17-05-2021    01:25      22.6º(----)     64%      000 (N)      9.7 km/h    1015.1 hpa     27.9º    0.0 mm
   17-05-2021    01:20      22.7º(----)     63%      000 (N)      8.0 km/h    1015.1 hpa     27.9º    0.0 mm
   17-05-2021    01:15      22.7º(----)     63%      000 (N)     11.3 km/h    1015.1 hpa     27.9º    0.0 mm
   17-05-2021    01:10      22.8º(----)     63%      000 (N)     11.3 km/h    1015.1 hpa     27.9º    0.0 mm
   17-05-2021    01:05      22.8º(----)     62%      000 (N)     11.3 km/h    1015.1 hpa     27.9º    0.0 mm
   17-05-2021    01:00      22.9º(----)     62%      000 (N)     11.3 km/h    1015.1 hpa     27.9º    0.0 mm
   17-05-2021    00:55      23.0º(----)     62%      000 (N)     11.3 km/h    1015.0 hpa     27.9º    0.0 mm
   17-05-2021    00:50      23.1º(----)     62%      000 (N)     12.9 km/h    1015.0 hpa     27.9º    0.0 mm
   17-05-2021    00:45      23.2º(----)     61%      000 (N)     11.3 km/h    1015.0 hpa     27.9º    0.0 mm
   17-05-2021    00:40      23.2º(----)     61%      000 (N)      9.7 km/h    1015.1 hpa     27.9º    0.0 mm
   17-05-2021    00:35      23.2º(----)     61%      000 (N)     11.3 km/h    1015.1 hpa     27.9º    0.0 mm
   17-05-2021    00:30      23.3º(----)     61%      000 (N)      9.7 km/h    1015.1 hpa     27.9º    0.0 mm
   17-05-2021    00:25      23.4º(----)     60%      000 (N)     11.3 km/h    1015.0 hpa     27.9º    0.0 mm
   17-05-2021    00:20      23.4º(----)     60%      000 (N)     11.3 km/h    1015.1 hpa     27.9º    0.0 mm
   17-05-2021    00:15      23.6º(----)     59%      000 (N)     11.3 km/h    1015.1 hpa     27.9º    0.0 mm
   17-05-2021    00:10      23.7º(----)     59%      000 (N)     12.9 km/h    1015.0 hpa     28.1º    0.0 mm
   17-05-2021    00:05      23.8º(----)     59%      000 (N)     11.3 km/h    1014.9 hpa     28.1º    0.0 mm
   17-05-2021    00:00      23.9º(----)     58%      000 (N)     12.9 km/h    1014.9 hpa     28.1º    0.0 mm